SCP
0 0 0 0 0 0 0 0 0 0 0 0 0 0 0 0 0 0 0 0 0 0 0 0 0 0 0 0 0 1 1 1 1 1 1 0 0 0 0 0 0 0 1 1
0 0 0 0 0 0 0 0 0 0 0 0 0 0 0 0 0 0 0 0 0 0 0 0 0 0 0 0 0 0 1 0 0 1 1 2 2 2 1 1 1 1 1 1
0 0 0 0 0 0 0 0 0 0 0 0 0 0 0 0 0 0 0 0 0 0 0 0 0 0 0 0 0 0 1 0 1 1 1 2 2 2 2 2 2 2 2 2
0 0 0 0 0 0 0 0 0 0 0 0 0 0 0 0 0 0 0 0 0 0 0 0 0 0 1 0 1 1 0 1 1 2 2 2 2 2 2 2 1 1 1 1
0 0 0 0 0 0 0 0 0 0 0 0 0 0 0 0 0 0 -0 0 0 0 1 1 1 1 1 1 1 1 2 2 2 2 2 2 1 1 1 1 1 0 0 1
0 0 0 0 0 0 0 0 0 0 0 0 0 0 0 0 0 0 0 0 0 0 2 1 2 2 2 2 2 3 3 2 2 2 1 1 1 1 1 0 0 0 0 0
0 0 0 0 0 0 0 0 0 0 0 0 0 0 0 0 0 0 0 1 0 1 2 2 2 2 2 2 2 2 3 3 2 1 1 1 1 1 0 0 1 1 0 1
0 0 0 0 0 0 0 0 0 0 0 0 0 0 0 0 0 0 1 2 1 3 3 3 2 3 3 3 5 4 3 2 2 2 2 2 2 1 1 1 1 1 1 0
0 0 1 1 1 1 1 0 0 0 1 0 0 1 1 1 0 1 2 4 4 3 3 2 4 3 4 6 3 3 3 3 3 3 3 2 2 2 0 0 0 0 0 0
0 1 1 1 1 0 0 0 0 0 0 0 1 1 1 1 1 2 3 6 6 7 6 4 5 5 5 3 3 2 4 4 4 4 3 2 1 0 0 0 0 0 0 0
1 1 1 1 1 1 1 0 1 1 0 1 2 2 3 3 4 3 2 4 4 5 4 3 3 5 3 3 3 3 3 4 4 3 1 1 1 0 0 0 0 0 0 0
2 2 1 1 1 1 1 1 1 1 2 2 3 4 4 5 6 4 3 3 2 1 1 1 2 3 3 3 3 4 3 1 1 1 0 0 0 0 0 0 0 0 0 0
1 1 1 1 0 0 0 1 1 1 2 3 2 2 2 5 3 1 1 2 2 2 2 2 2 1 3 3 4 2 2 1 0 0 0 0 0 0 0 0 0 0 0 0
1 1 0 0 0 0 0 0 0 0 1 1 1 1 1 1 1 1 1 1 1 1 2 2 1 2 2 2 2 2 1 0 0 0 0 0 0 0 0 0 0 0 0 0
1 1 1 2 1 1 0 1 1 1 1 1 1 1 1 1 1 1 1 1 1 2 2 2 2 2 2 1 1 1 0 0 0 1 0 0 0 0 0 0 0 0 0 0
1 1 0 0 1 1 0 0 0 1 1 1 1 2 2 2 1 1 1 1 1 2 2 2 1 1 1 1 1 0 0 0 0 0 0 0 0 0 0 0 0 0 0 0
1 1 0 0 0 1 1 1 1 1 1 2 2 1 1 1 1 1 1 1 2 1 1 1 1 1 0 0 0 0 0 0 0 0 0 0 0 0 0 0 0 0 0 0
0 1 1 1 1 1 1 1 1 1 1 1 1 1 1 1 1 1 1 1 0 0 1 1 0 0 0 0 0 0 0 0 0 0 0 0 0 0 0 0 0 0 0 0
1 1 1 0 0 0 0 1 1 1 1 1 1 1 1 1 1 1 0 0 0 0 1 0 0 0 0 0 0 0 0 0 0 0 0 0 0 0 0 0 0 0 0 0
0 0 0 0 0 0 1 1 1 1 1 1 1 1 1 1 0 0 0 1 1 1 0 0 0 0 0 0 0 0 0 0 0 0 0 0 0 0 0 0 0 0 0 0
0 0 0 0 1 1 1 1 1 1 1 1 1 1 1 0 0 0 0 1 0 0 0 0 0 0 0 0 0 0 0 0 0 0 0 0 0 0 0 0 0 0 0 0
0 0 0 0 1 1 1 1 1 1 1 1 1 0 0 0 0 0 0 0 0 0 0 0 0 0 0 0 0 0 0 0 0 0 0 0 0 -0 0 0 0 -0 -0 0
0 0 0 0 0 0 0 0 0 0 0 0 0 0 0 0 0 0 1 0 0 0 0 0 0 0 0 0 0 0 0 0 0 0 0 0 -0 0 0 0 0 -0 -0 -0
0 0 1 1 0 0 1 0 0 0 0 0 0 0 0 0 0 0 0 0 0 0 0 0 0 0 -0 0 0 0 0 0 0 -0 -0 -0 -0 -0 -0 -0 0 -0 -0 -0
-0 0 0 0 0 0 0 0 0 0 0 0 0 0 0 0 0 0 0 0 0 0 0 0 0 0 0 0 0 0 0 0 -0 0 0 0 0 0 0 0 0 0 0 -0
-0 0 -0 0 0 0 0 0 0 0 0 0 0 0 0 0 0 0 0 0 0 0 0 0 0 0 0 0 0 0 -0 -0 0 0 0 0 0 0 0 -0 -0 0 0 0
0 -0 0 0 0 0 0 0 0 0 0 0 0 0 0 0 0 0 0 0 0 0 0 0 0 0 0 0 0 0 0 0 0 0 0 0 0 0 0 0 0 0 0 -0
Wind_Speed_500mb
49 50 46 53 45 49 53 47 45 39 30 31 24 30 31 37 44 40 36 35 33 30 28 29 28 28 29 27 28 25 23 20 18 15 14 17 17 20 22 25 27 28 34 37
47 49 53 51 40 50 50 45 45 42 43 32 34 26 39 38 50 48 45 41 40 37 34 34 31 29 28 28 24 21 19 14 15 18 15 9 7 8 12 17 22 25 28 33
46 45 50 48 48 39 35 36 34 39 36 19 17 20 32 44 47 53 52 48 48 47 42 38 35 32 28 25 20 19 17 15 12 13 9 8 5 3 5 9 13 16 19 24
39 43 52 28 43 48 44 41 38 41 33 30 24 36 28 41 58 61 58 55 53 51 47 43 38 33 29 24 22 20 20 17 14 13 11 7 5 9 16 22 26 30 30 30
35 38 39 44 51 47 43 50 39 41 39 24 27 34 43 41 34 55 72 67 59 52 50 45 44 39 34 30 26 23 23 21 18 13 9 10 14 17 23 31 38 43 38 43
27 45 50 40 45 41 29 42 46 55 36 38 37 22 23 31 44 60 69 70 62 53 50 45 42 39 35 30 27 25 22 18 14 10 7 8 19 30 39 46 43 33 45 48
33 28 32 44 27 47 44 27 36 58 60 35 32 20 23 34 46 47 59 70 65 58 53 48 42 38 35 30 27 25 22 17 11 7 8 19 25 37 44 47 49 54 56 59
34 37 40 9 12 22 12 16 14 19 11 2 12 16 7 17 29 25 53 66 61 54 49 46 43 38 34 30 29 27 21 18 13 11 12 16 28 38 44 48 49 46 47 49
30 34 20 10 4 13 8 3 5 7 6 3 13 9 7 8 8 8 44 47 48 42 44 41 40 35 34 34 28 23 20 12 7 13 21 28 37 43 38 40 46 48 47 45
23 12 14 11 8 3 3 3 4 8 6 8 12 14 14 19 28 31 34 41 44 45 40 37 34 33 33 28 26 24 25 21 20 27 31 36 33 34 40 39 43 42 44 45
24 27 16 23 19 15 12 11 10 11 13 16 22 22 25 29 31 33 35 38 40 37 38 36 37 34 23 20 11 8 18 24 26 31 23 34 41 41 44 46 43 45 47 47
16 25 31 27 20 20 22 23 24 27 30 31 34 38 42 43 41 39 35 34 34 32 29 27 26 25 22 19 18 21 25 23 19 26 33 40 45 49 49 52 51 51 49 55
26 31 34 30 27 28 34 38 39 40 41 45 48 51 48 44 37 37 32 31 33 36 31 23 17 10 13 18 21 27 28 28 27 30 38 41 43 49 54 49 49 54 56 52
29 30 29 28 27 27 29 33 33 35 35 37 38 34 32 35 30 24 18 15 11 10 16 12 6 7 7 7 15 18 20 29 31 31 37 43 46 48 50 55 57 55 51 54
27 24 27 21 23 25 24 25 23 24 25 28 26 25 26 26 24 20 16 12 17 17 15 13 10 6 2 8 14 17 25 30 30 33 38 42 44 46 48 52 54 57 58 54
22 24 23 24 17 15 15 18 23 20 22 23 24 25 25 26 25 24 22 20 16 14 12 8 3 4 7 12 18 24 25 30 31 30 37 42 41 46 50 53 55 56 58 58
11 21 15 17 12 10 8 7 25 24 25 27 27 28 28 26 26 23 20 16 17 15 8 2 3 9 12 15 18 21 22 26 35 31 35 40 44 46 45 49 56 54 51 53
13 7 5 7 6 12 15 19 23 25 26 30 32 30 28 24 23 20 16 12 11 6 2 3 12 6 11 10 13 15 19 26 31 36 39 40 41 45 47 43 45 52 58 59
17 9 4 5 7 12 18 23 25 26 27 27 29 28 25 22 19 15 10 4 4 3 4 10 13 3 6 14 19 18 21 28 33 35 37 41 40 39 42 48 49 49 51 55
17 14 10 10 13 19 23 24 28 28 26 25 24 23 22 18 13 9 7 6 7 4 3 7 8 8 8 16 27 18 23 28 31 33 34 43 37 43 41 40 41 44 44 42
15 15 17 20 23 26 27 28 27 26 23 20 19 17 16 13 8 6 6 9 8 5 6 3 5 5 8 15 16 20 24 29 34 39 42 38 37 34 34 35 32 32 34 38
6 12 16 18 20 23 23 22 21 19 17 15 15 14 12 8 6 6 7 6 5 7 9 5 3 9 16 16 15 20 26 36 43 43 35 30 28 28 27 26 31 34 35 37
8 13 13 16 19 19 18 14 10 9 10 10 11 10 7 5 5 5 9 9 8 11 12 7 8 14 16 11 14 20 30 36 38 36 32 29 28 28 30 32 34 36 39 42
10 13 16 15 13 13 11 4 3 6 9 10 11 10 7 9 9 9 12 16 21 9 14 11 12 13 9 9 11 14 25 28 32 33 33 29 28 30 31 31 34 38 39 47
19 16 16 16 6 7 2 3 8 10 11 12 11 9 8 6 6 4 16 18 7 9 2 9 9 5 5 6 10 11 17 18 25 26 29 31 33 32 30 30 34 35 39 48
13 17 16 11 8 7 9 13 14 11 10 10 12 10 8 1 6 12 14 13 5 3 2 4 6 4 2 4 7 9 11 13 16 17 19 18 21 26 30 29 30 33 34 38
7 4 2 3 4 12 14 22 11 9 6 11 4 10 5 7 10 13 14 8 5 7 11 1 6 2 0 2 4 5 4 7 14 12 11 14 16 16 16 23 26 30 31 28
Wind_Direction_500mb
242 256 251 220 206 221 237 242 248 248 213 249 182 184 202 209 177 178 187 179 169 164 166 161 162 162 164 171 172 178 182 196 210 210 213 223 246 266 278 284 282 285 278 282
240 246 253 254 241 227 221 230 249 262 255 209 215 231 183 213 185 190 193 188 175 171 172 169 168 163 161 165 176 180 188 198 215 231 244 248 259 288 301 303 307 303 301 299
245 242 246 238 241 229 250 214 234 241 249 262 260 199 188 196 207 202 202 194 181 177 177 177 174 169 166 166 174 197 208 197 180 155 169 186 209 233 278 302 299 299 296 299
239 239 243 239 240 239 240 242 221 242 252 224 240 251 228 223 204 203 208 203 193 180 177 175 171 168 167 167 173 168 155 155 167 165 181 195 260 297 306 309 313 313 312 307
239 238 253 234 245 241 215 234 233 232 235 232 228 242 246 249 241 212 207 208 202 190 180 172 168 166 161 161 165 161 162 165 175 186 213 263 281 301 312 313 311 309 307 302
228 240 235 236 248 239 258 225 224 230 227 223 227 238 262 254 246 236 210 201 201 196 175 175 171 165 163 164 163 165 169 182 195 219 249 301 318 322 321 319 320 305 302 303
235 235 235 256 256 250 209 238 239 232 228 206 237 266 304 299 303 286 211 193 192 185 175 177 174 169 161 166 171 177 173 175 192 221 305 322 315 322 320 316 311 309 307 312
229 231 236 220 200 245 67 67 9 345 11 253 295 300 287 275 279 261 202 180 185 169 175 175 173 170 162 162 176 191 193 196 213 257 282 277 307 316 308 309 313 313 310 307
225 226 99 124 40 67 42 75 22 330 325 260 235 159 208 157 198 154 145 152 162 169 173 178 172 168 162 172 191 180 182 189 212 261 285 303 306 302 309 311 304 302 300 299
213 121 99 82 104 83 251 261 254 244 207 183 156 151 165 151 150 147 149 157 166 164 166 170 163 158 167 184 188 193 224 230 267 285 302 304 301 294 297 299 297 297 298 298
121 110 131 83 65 66 82 117 130 122 122 124 132 134 133 131 139 149 153 154 148 152 166 162 158 155 150 160 168 200 256 273 283 299 301 289 295 296 294 293 292 292 293 296
107 116 86 101 94 89 99 102 103 108 110 114 120 122 123 122 119 119 122 131 147 157 153 150 154 178 187 194 218 266 277 297 299 278 292 295 298 300 297 298 300 296 297 301
110 97 107 109 113 114 108 107 105 104 108 114 116 116 116 115 117 125 125 140 154 159 171 166 164 202 212 232 245 243 257 277 290 296 297 298 302 300 300 301 300 302 301 301
96 116 122 126 121 122 119 116 112 112 115 119 120 116 117 114 113 111 121 142 151 155 165 172 170 153 224 250 256 281 294 293 303 301 301 301 300 299 298 299 299 299 298 302
80 90 103 99 120 126 130 127 123 123 124 128 126 121 114 107 103 108 112 112 120 127 118 113 143 150 283 303 306 297 294 297 296 297 298 298 299 301 299 299 299 300 301 300
71 81 108 125 127 142 148 161 140 131 136 132 128 121 119 117 115 116 120 119 114 120 121 127 109 298 299 297 305 308 311 302 305 304 299 303 305 302 301 301 301 300 300 299
44 94 97 107 119 113 103 135 132 140 137 131 127 125 124 122 120 117 117 123 123 124 116 94 271 305 316 322 312 310 301 303 307 319 311 306 305 305 303 303 300 297 298 299
53 69 74 104 91 124 124 126 133 141 140 135 133 131 128 128 128 126 128 129 115 114 124 284 309 339 275 304 326 327 321 319 317 314 312 310 304 310 306 305 306 306 310 314
44 54 84 156 180 164 152 141 140 142 138 133 132 130 128 128 131 132 139 131 99 109 114 288 325 53 4 334 338 343 329 324 321 316 312 306 311 312 309 313 316 318 321 323
49 57 77 107 141 155 151 146 142 139 138 138 130 127 125 126 132 139 132 120 147 130 116 332 25 28 24 348 350 347 334 332 326 323 320 318 319 320 321 323 325 327 331 338
70 83 97 110 119 127 132 136 138 136 133 133 135 134 133 131 132 136 126 174 125 82 356 52 134 78 334 350 3 344 342 342 341 334 330 325 327 328 331 334 342 351 359 3
128 120 120 123 123 123 125 128 128 126 130 133 141 145 147 150 171 140 132 148 168 89 104 131 328 349 342 354 3 357 351 353 349 351 349 345 346 353 3 12 21 20 21 21
165 160 144 141 130 126 122 121 125 142 151 158 165 175 197 222 247 266 169 154 164 141 152 211 334 346 0 20 7 1 6 10 11 18 22 30 34 33 38 35 34 34 34 33
76 69 107 105 116 125 127 110 106 175 194 198 205 199 238 296 183 159 214 209 197 185 184 316 325 332 46 23 17 4 15 19 29 36 39 42 44 42 41 44 47 48 46 44
90 86 76 72 105 108 101 310 260 219 213 224 199 215 252 212 281 333 160 181 194 135 255 313 320 19 60 27 17 28 15 22 28 33 34 40 43 41 43 46 50 48 49 50
141 111 105 93 73 25 8 352 318 242 207 228 223 191 219 127 208 160 152 152 160 211 296 26 81 74 31 35 31 18 21 13 16 7 15 7 9 20 31 42 44 41 35 33
161 137 30 316 62 339 326 323 320 296 247 243 169 182 162 158 136 146 161 165 164 131 125 130 34 3 321 359 15 354 7 337 14 32 26 2 6 10 4 0 4 7 10 11
Wind_Speed_850mb
49 50 46 53 45 49 53 47 45 39 30 31 24 30 31 37 44 40 36 35 33 30 28 29 28 28 29 27 28 25 23 20 18 15 14 17 17 20 22 25 27 28 34 37
47 49 53 51 40 50 50 45 45 42 43 32 34 26 39 38 50 48 45 41 40 37 34 34 31 29 28 28 24 21 19 14 15 18 15 9 7 8 12 17 22 25 28 33
46 45 50 48 48 39 35 36 34 39 36 19 17 20 32 44 47 53 52 48 48 47 42 38 35 32 28 25 20 19 17 15 12 13 9 8 5 3 5 9 13 16 19 24
39 43 52 28 43 48 44 41 38 41 33 30 24 36 28 41 58 61 58 55 53 51 47 43 38 33 29 24 22 20 20 17 14 13 11 7 5 9 16 22 26 30 30 30
35 38 39 44 51 47 43 50 39 41 39 24 27 34 43 41 34 55 72 67 59 52 50 45 44 39 34 30 26 23 23 21 18 13 9 10 14 17 23 31 38 43 38 43
27 45 50 40 45 41 29 42 46 55 36 38 37 22 23 31 44 60 69 70 62 53 50 45 42 39 35 30 27 25 22 18 14 10 7 8 19 30 39 46 43 33 45 48
33 28 32 44 27 47 44 27 36 58 60 35 32 20 23 34 46 47 59 70 65 58 53 48 42 38 35 30 27 25 22 17 11 7 8 19 25 37 44 47 49 54 56 59
34 37 40 9 12 22 12 16 14 19 11 2 12 16 7 17 29 25 53 66 61 54 49 46 43 38 34 30 29 27 21 18 13 11 12 16 28 38 44 48 49 46 47 49
30 34 20 10 4 13 8 3 5 7 6 3 13 9 7 8 8 8 44 47 48 42 44 41 40 35 34 34 28 23 20 12 7 13 21 28 37 43 38 40 46 48 47 45
23 12 14 11 8 3 3 3 4 8 6 8 12 14 14 19 28 31 34 41 44 45 40 37 34 33 33 28 26 24 25 21 20 27 31 36 33 34 40 39 43 42 44 45
24 27 16 23 19 15 12 11 10 11 13 16 22 22 25 29 31 33 35 38 40 37 38 36 37 34 23 20 11 8 18 24 26 31 23 34 41 41 44 46 43 45 47 47
16 25 31 27 20 20 22 23 24 27 30 31 34 38 42 43 41 39 35 34 34 32 29 27 26 25 22 19 18 21 25 23 19 26 33 40 45 49 49 52 51 51 49 55
26 31 34 30 27 28 34 38 39 40 41 45 48 51 48 44 37 37 32 31 33 36 31 23 17 10 13 18 21 27 28 28 27 30 38 41 43 49 54 49 49 54 56 52
29 30 29 28 27 27 29 33 33 35 35 37 38 34 32 35 30 24 18 15 11 10 16 12 6 7 7 7 15 18 20 29 31 31 37 43 46 48 50 55 57 55 51 54
27 24 27 21 23 25 24 25 23 24 25 28 26 25 26 26 24 20 16 12 17 17 15 13 10 6 2 8 14 17 25 30 30 33 38 42 44 46 48 52 54 57 58 54
22 24 23 24 17 15 15 18 23 20 22 23 24 25 25 26 25 24 22 20 16 14 12 8 3 4 7 12 18 24 25 30 31 30 37 42 41 46 50 53 55 56 58 58
11 21 15 17 12 10 8 7 25 24 25 27 27 28 28 26 26 23 20 16 17 15 8 2 3 9 12 15 18 21 22 26 35 31 35 40 44 46 45 49 56 54 51 53
13 7 5 7 6 12 15 19 23 25 26 30 32 30 28 24 23 20 16 12 11 6 2 3 12 6 11 10 13 15 19 26 31 36 39 40 41 45 47 43 45 52 58 59
17 9 4 5 7 12 18 23 25 26 27 27 29 28 25 22 19 15 10 4 4 3 4 10 13 3 6 14 19 18 21 28 33 35 37 41 40 39 42 48 49 49 51 55
17 14 10 10 13 19 23 24 28 28 26 25 24 23 22 18 13 9 7 6 7 4 3 7 8 8 8 16 27 18 23 28 31 33 34 43 37 43 41 40 41 44 44 42
15 15 17 20 23 26 27 28 27 26 23 20 19 17 16 13 8 6 6 9 8 5 6 3 5 5 8 15 16 20 24 29 34 39 42 38 37 34 34 35 32 32 34 38
6 12 16 18 20 23 23 22 21 19 17 15 15 14 12 8 6 6 7 6 5 7 9 5 3 9 16 16 15 20 26 36 43 43 35 30 28 28 27 26 31 34 35 37
8 13 13 16 19 19 18 14 10 9 10 10 11 10 7 5 5 5 9 9 8 11 12 7 8 14 16 11 14 20 30 36 38 36 32 29 28 28 30 32 34 36 39 42
10 13 16 15 13 13 11 4 3 6 9 10 11 10 7 9 9 9 12 16 21 9 14 11 12 13 9 9 11 14 25 28 32 33 33 29 28 30 31 31 34 38 39 47
19 16 16 16 6 7 2 3 8 10 11 12 11 9 8 6 6 4 16 18 7 9 2 9 9 5 5 6 10 11 17 18 25 26 29 31 33 32 30 30 34 35 39 48
13 17 16 11 8 7 9 13 14 11 10 10 12 10 8 1 6 12 14 13 5 3 2 4 6 4 2 4 7 9 11 13 16 17 19 18 21 26 30 29 30 33 34 38
7 4 2 3 4 12 14 22 11 9 6 11 4 10 5 7 10 13 14 8 5 7 11 1 6 2 0 2 4 5 4 7 14 12 11 14 16 16 16 23 26 30 31 28
Wind_Direction_850mb
242 256 251 220 206 221 237 242 248 248 213 249 182 184 202 209 177 178 187 179 169 164 166 161 162 162 164 171 172 178 182 196 210 210 213 223 246 266 278 284 282 285 278 282
240 246 253 254 241 227 221 230 249 262 255 209 215 231 183 213 185 190 193 188 175 171 172 169 168 163 161 165 176 180 188 198 215 231 244 248 259 288 301 303 307 303 301 299
245 242 246 238 241 229 250 214 234 241 249 262 260 199 188 196 207 202 202 194 181 177 177 177 174 169 166 166 174 197 208 197 180 155 169 186 209 233 278 302 299 299 296 299
239 239 243 239 240 239 240 242 221 242 252 224 240 251 228 223 204 203 208 203 193 180 177 175 171 168 167 167 173 168 155 155 167 165 181 195 260 297 306 309 313 313 312 307
239 238 253 234 245 241 215 234 233 232 235 232 228 242 246 249 241 212 207 208 202 190 180 172 168 166 161 161 165 161 162 165 175 186 213 263 281 301 312 313 311 309 307 302
228 240 235 236 248 239 258 225 224 230 227 223 227 238 262 254 246 236 210 201 201 196 175 175 171 165 163 164 163 165 169 182 195 219 249 301 318 322 321 319 320 305 302 303
235 235 235 256 256 250 209 238 239 232 228 206 237 266 304 299 303 286 211 193 192 185 175 177 174 169 161 166 171 177 173 175 192 221 305 322 315 322 320 316 311 309 307 312
229 231 236 220 200 245 67 67 9 345 11 253 295 300 287 275 279 261 202 180 185 169 175 175 173 170 162 162 176 191 193 196 213 257 282 277 307 316 308 309 313 313 310 307
225 226 99 124 40 67 42 75 22 330 325 260 235 159 208 157 198 154 145 152 162 169 173 178 172 168 162 172 191 180 182 189 212 261 285 303 306 302 309 311 304 302 300 299
213 121 99 82 104 83 251 261 254 244 207 183 156 151 165 151 150 147 149 157 166 164 166 170 163 158 167 184 188 193 224 230 267 285 302 304 301 294 297 299 297 297 298 298
121 110 131 83 65 66 82 117 130 122 122 124 132 134 133 131 139 149 153 154 148 152 166 162 158 155 150 160 168 200 256 273 283 299 301 289 295 296 294 293 292 292 293 296
107 116 86 101 94 89 99 102 103 108 110 114 120 122 123 122 119 119 122 131 147 157 153 150 154 178 187 194 218 266 277 297 299 278 292 295 298 300 297 298 300 296 297 301
110 97 107 109 113 114 108 107 105 104 108 114 116 116 116 115 117 125 125 140 154 159 171 166 164 202 212 232 245 243 257 277 290 296 297 298 302 300 300 301 300 302 301 301
96 116 122 126 121 122 119 116 112 112 115 119 120 116 117 114 113 111 121 142 151 155 165 172 170 153 224 250 256 281 294 293 303 301 301 301 300 299 298 299 299 299 298 302
80 90 103 99 120 126 130 127 123 123 124 128 126 121 114 107 103 108 112 112 120 127 118 113 143 150 283 303 306 297 294 297 296 297 298 298 299 301 299 299 299 300 301 300
71 81 108 125 127 142 148 161 140 131 136 132 128 121 119 117 115 116 120 119 114 120 121 127 109 298 299 297 305 308 311 302 305 304 299 303 305 302 301 301 301 300 300 299
44 94 97 107 119 113 103 135 132 140 137 131 127 125 124 122 120 117 117 123 123 124 116 94 271 305 316 322 312 310 301 303 307 319 311 306 305 305 303 303 300 297 298 299
53 69 74 104 91 124 124 126 133 141 140 135 133 131 128 128 128 126 128 129 115 114 124 284 309 339 275 304 326 327 321 319 317 314 312 310 304 310 306 305 306 306 310 314
44 54 84 156 180 164 152 141 140 142 138 133 132 130 128 128 131 132 139 131 99 109 114 288 325 53 4 334 338 343 329 324 321 316 312 306 311 312 309 313 316 318 321 323
49 57 77 107 141 155 151 146 142 139 138 138 130 127 125 126 132 139 132 120 147 130 116 332 25 28 24 348 350 347 334 332 326 323 320 318 319 320 321 323 325 327 331 338
70 83 97 110 119 127 132 136 138 136 133 133 135 134 133 131 132 136 126 174 125 82 356 52 134 78 334 350 3 344 342 342 341 334 330 325 327 328 331 334 342 351 359 3
128 120 120 123 123 123 125 128 128 126 130 133 141 145 147 150 171 140 132 148 168 89 104 131 328 349 342 354 3 357 351 353 349 351 349 345 346 353 3 12 21 20 21 21
165 160 144 141 130 126 122 121 125 142 151 158 165 175 197 222 247 266 169 154 164 141 152 211 334 346 0 20 7 1 6 10 11 18 22 30 34 33 38 35 34 34 34 33
76 69 107 105 116 125 127 110 106 175 194 198 205 199 238 296 183 159 214 209 197 185 184 316 325 332 46 23 17 4 15 19 29 36 39 42 44 42 41 44 47 48 46 44
90 86 76 72 105 108 101 310 260 219 213 224 199 215 252 212 281 333 160 181 194 135 255 313 320 19 60 27 17 28 15 22 28 33 34 40 43 41 43 46 50 48 49 50
141 111 105 93 73 25 8 352 318 242 207 228 223 191 219 127 208 160 152 152 160 211 296 26 81 74 31 35 31 18 21 13 16 7 15 7 9 20 31 42 44 41 35 33
161 137 30 316 62 339 326 323 320 296 247 243 169 182 162 158 136 146 161 165 164 131 125 130 34 3 321 359 15 354 7 337 14 32 26 2 6 10 4 0 4 7 10 11